Adak, AK

5:49 AM HDT on August 18, 2017 (GMT -0900)
Adak

Weather History for PADK - February, 2013

Change the Weather History Date:

Wednesday, February 27, 2013

  Actual Average Record
Temperature  
Mean Temperature 30 °F -  
Max Temperature 33 °F 38 °F 48 °F (2009)
Min Temperature 28 °F 29 °F 12 °F (1957)
Degree Days  
Heating Degree Days 34    
Moisture  
Dew Point 22 °F    
Average Humidity 71    
Maximum Humidity 80    
Minimum Humidity 53    
Precipitation  
Precipitation 0.16 in - - ()
Sea Level Pressure  
Sea Level Pressure 29.54 in    
Wind  
Wind Speed 22 mph (NNE)    
Max Wind Speed 28 mph    
Max Gust Speed 38 mph    
Visibility 10 miles    
Events      
Averages and records for this station are not official NWS values.
T = Trace of Precipitation, MM = Missing Value Source: NWS Daily Summary

Daily Weather History Graph

Daily Weather History Graph

Search for Another Location

Airport or City:

Trip Planner

Search our weather history database for the weather conditions in past years. The results will help you decide how hot, cold, wet, or windy it might be!

Date:

Astronomy

Feb. 27, 2013 Rise Set
Actual Time 8:35 AM HST 7:23 PM HST
Civil Twilight 8:01 AM HST 7:57 PM HST
Nautical Twilight 7:22 AM HST 8:36 PM HST
Astronomical Twilight 6:43 AM HST 9:16 PM HST
Moon 10:27 PM HST (2/27) 8:56 AM HST (2/27)
Length of Visible Light 11h 56m
Length of Day
10h 48m
Waning Gibbous, 95% of the Moon is Illuminated
Feb 27
Waning Gibbous
Mar 4
Last Quarter
Mar 11
New
Mar 19
First Quarter
Mar 27
Full

Hourly Weather History & Observations

Time (HST) Temp. Windchill Dew Point Humidity Pressure Visibility Wind Dir Wind Speed Gust Speed Precip Events Conditions
12:16 AM 32.0 °F 18.1 °F 26.6 °F 80% 29.21 in 10.0 mi NE 27.6 mph 38.0 mph N/A   Overcast
12:36 AM 32.0 °F 18.6 °F 24.8 °F 75% 29.22 in 10.0 mi NE 25.3 mph 31.1 mph N/A   Overcast
12:56 AM 32.0 °F 18.9 °F 24.8 °F 75% 29.23 in 10.0 mi NNE 24.2 mph 35.7 mph N/A   Overcast
1:16 AM 32.0 °F 19.2 °F 24.8 °F 75% 29.23 in 10.0 mi NE 23.0 mph 31.1 mph N/A   Overcast
1:36 AM 30.2 °F 16.2 °F 24.8 °F 80% 29.24 in 10.0 mi NE 25.3 mph 29.9 mph N/A   Overcast
1:56 AM 30.2 °F 16.8 °F 24.8 °F 80% 29.25 in 10.0 mi NNE 23.0 mph 27.6 mph N/A   Overcast
2:16 AM 30.2 °F 17.1 °F 24.8 °F 80% 29.26 in 10.0 mi NNE 21.9 mph 27.6 mph N/A   Overcast
2:36 AM 30.2 °F 17.4 °F 23.0 °F 75% 29.27 in 10.0 mi NNE 20.7 mph 26.5 mph N/A   Overcast
2:56 AM 30.2 °F 16.5 °F 24.8 °F 80% 29.27 in 10.0 mi NNE 24.2 mph 31.1 mph N/A   Overcast
3:16 AM 30.2 °F 17.1 °F 24.8 °F 80% 29.29 in 10.0 mi NNE 21.9 mph 32.2 mph N/A   Overcast
3:36 AM 30.2 °F 16.5 °F 23.0 °F 75% 29.30 in 10.0 mi NNE 24.2 mph 31.1 mph N/A   Overcast
3:56 AM 30.2 °F 17.4 °F 23.0 °F 75% 29.31 in 10.0 mi NNE 20.7 mph 27.6 mph N/A   Overcast
4:16 AM 30.2 °F 16.8 °F 21.2 °F 69% 29.31 in 10.0 mi NNE 23.0 mph 26.5 mph N/A   Overcast
4:36 AM 30.2 °F 17.4 °F 23.0 °F 75% 29.32 in 10.0 mi NNE 20.7 mph 25.3 mph N/A   Overcast
4:56 AM 30.2 °F 17.4 °F 24.8 °F 80% 29.33 in 10.0 mi NNE 20.7 mph 27.6 mph N/A   Overcast
5:16 AM 30.2 °F 17.8 °F 21.2 °F 69% 29.34 in 10.0 mi NNE 19.6 mph 27.6 mph N/A   Overcast
5:36 AM 30.2 °F 18.5 °F 23.0 °F 75% 29.35 in 10.0 mi NNE 17.3 mph 27.6 mph N/A   Overcast
5:56 AM 28.4 °F 15.4 °F 23.0 °F 80% 29.36 in 10.0 mi NNE 19.6 mph 25.3 mph N/A   Overcast
6:16 AM 28.4 °F 15.8 °F 23.0 °F 80% 29.37 in 10.0 mi NNE 18.4 mph 24.2 mph N/A   Overcast
6:36 AM 28.4 °F 14.4 °F 23.0 °F 80% 29.38 in 10.0 mi NNE 23.0 mph 28.8 mph N/A   Overcast
6:56 AM 30.2 °F 18.5 °F 21.2 °F 69% 29.39 in 10.0 mi NNE 17.3 mph 29.9 mph N/A   Overcast
7:16 AM 30.2 °F 16.8 °F 21.2 °F 69% 29.40 in 10.0 mi NNE 23.0 mph 32.2 mph N/A   Overcast
7:36 AM 30.2 °F 16.8 °F 21.2 °F 69% 29.41 in 10.0 mi NNE 23.0 mph 31.1 mph N/A   Overcast
7:56 AM 30.2 °F 16.8 °F 23.0 °F 75% 29.42 in 10.0 mi NNE 23.0 mph 27.6 mph N/A   Overcast
8:16 AM 30.2 °F 15.9 °F 23.0 °F 75% 29.43 in 10.0 mi North 26.5 mph 33.4 mph N/A   Overcast
8:36 AM 30.2 °F 16.2 °F 23.0 °F 75% 29.44 in 7.0 mi NNE 25.3 mph 29.9 mph N/A   Overcast
8:56 AM 30.2 °F 16.2 °F 21.2 °F 69% 29.44 in 10.0 mi North 25.3 mph 33.4 mph N/A   Overcast
9:16 AM 30.2 °F 16.2 °F 23.0 °F 75% 29.45 in 10.0 mi NNE 25.3 mph 29.9 mph N/A   Overcast
9:36 AM 30.2 °F 15.9 °F 21.2 °F 69% 29.47 in 10.0 mi NNE 26.5 mph 34.5 mph 0.04 in   Overcast
9:56 AM 30.2 °F 16.8 °F 21.2 °F 69% 29.48 in 10.0 mi NNE 23.0 mph 29.9 mph 0.06 in   Overcast
10:16 AM 30.2 °F 15.9 °F 21.2 °F 69% 29.49 in 10.0 mi North 26.5 mph 32.2 mph N/A   Overcast
10:36 AM 30.2 °F 16.2 °F 21.2 °F 69% 29.50 in 10.0 mi North 25.3 mph 29.9 mph N/A   Overcast
10:56 AM 30.2 °F 16.2 °F 21.2 °F 69% 29.51 in 10.0 mi North 25.3 mph 32.2 mph N/A   Overcast
11:16 AM 30.2 °F 16.8 °F 21.2 °F 69% 29.52 in 10.0 mi North 23.0 mph 32.2 mph N/A   Overcast
11:36 AM 30.2 °F 16.5 °F 21.2 °F 69% 29.54 in 10.0 mi North 24.2 mph 28.8 mph N/A   Overcast
11:56 AM 30.2 °F 16.5 °F 23.0 °F 75% 29.55 in 10.0 mi NNE 24.2 mph 28.8 mph N/A   Overcast
12:16 PM 30.2 °F 17.1 °F 23.0 °F 75% 29.56 in 9.0 mi North 21.9 mph 27.6 mph N/A   Overcast
12:36 PM 30.2 °F 17.4 °F 21.2 °F 69% 29.57 in 10.0 mi North 20.7 mph 27.6 mph N/A   Overcast
12:56 PM 30.2 °F 17.4 °F 21.2 °F 69% 29.58 in 10.0 mi NNE 20.7 mph 25.3 mph N/A   Overcast
1:16 PM 30.2 °F 17.1 °F 21.2 °F 69% 29.59 in 10.0 mi NNE 21.9 mph - N/A   Overcast
1:36 PM 30.2 °F 17.1 °F 23.0 °F 75% 29.59 in 10.0 mi North 21.9 mph 25.3 mph N/A   Overcast
1:56 PM 32.0 °F 20.5 °F 21.2 °F 64% 29.60 in 10.0 mi North 18.4 mph 26.5 mph N/A   Overcast
2:16 PM 30.2 °F 17.1 °F 24.8 °F 80% 29.61 in 8.0 mi North 21.9 mph 28.8 mph N/A   Overcast
2:36 PM 32.0 °F 20.5 °F 23.0 °F 69% 29.61 in 10.0 mi North 18.4 mph 25.3 mph N/A   Overcast
2:56 PM 32.0 °F 20.1 °F 23.0 °F 69% 29.62 in 9.0 mi North 19.6 mph 32.2 mph N/A   Overcast
3:16 PM 32.0 °F 19.8 °F 24.8 °F 75% 29.62 in 10.0 mi NNE 20.7 mph 24.2 mph N/A   Overcast
3:36 PM 32.0 °F 20.1 °F 24.8 °F 75% 29.63 in 10.0 mi North 19.6 mph 27.6 mph N/A   Overcast
3:56 PM 32.0 °F 19.8 °F 24.8 °F 75% 29.64 in 7.0 mi North 20.7 mph 32.2 mph 0.02 in   Overcast
4:16 PM 33.8 °F 21.3 °F 21.2 °F 60% 29.65 in 10.0 mi North 24.2 mph 31.1 mph 0.04 in   Overcast
4:36 PM 32.0 °F 19.8 °F 23.0 °F 69% 29.66 in 10.0 mi North 20.7 mph 26.5 mph 0.04 in   Overcast
4:56 PM 32.0 °F 19.2 °F 21.2 °F 64% 29.67 in 10.0 mi North 23.0 mph 28.8 mph 0.04 in   Overcast
5:16 PM 32.0 °F 20.1 °F 23.0 °F 69% 29.68 in 10.0 mi North 19.6 mph 29.9 mph N/A   Overcast
5:36 PM 32.0 °F 19.8 °F 23.0 °F 69% 29.69 in 10.0 mi North 20.7 mph 26.5 mph N/A   Overcast
5:56 PM 32.0 °F 19.8 °F 21.2 °F 64% 29.70 in 10.0 mi North 20.7 mph 28.8 mph N/A   Overcast
6:16 PM 32.0 °F 20.1 °F 21.2 °F 64% 29.71 in 10.0 mi North 19.6 mph 27.6 mph N/A   Overcast
6:36 PM 32.0 °F 20.1 °F 21.2 °F 64% 29.72 in 10.0 mi North 19.6 mph - N/A   Overcast
6:56 PM 32.0 °F 20.5 °F 21.2 °F 64% 29.73 in 10.0 mi North 18.4 mph - N/A   Overcast
7:16 PM 32.0 °F 20.5 °F 23.0 °F 69% 29.74 in 10.0 mi North 18.4 mph 24.2 mph 0.06 in   Overcast
7:36 PM 32.0 °F 20.1 °F 23.0 °F 69% 29.75 in 10.0 mi North 19.6 mph - 0.06 in   Overcast
7:56 PM 32.0 °F 21.6 °F 21.2 °F 64% 29.76 in 10.0 mi North 15.0 mph - 0.06 in   Overcast
8:16 PM 32.0 °F 20.8 °F 19.4 °F 60% 29.77 in 10.0 mi North 17.3 mph 20.7 mph N/A   Overcast
8:36 PM 32.0 °F 20.5 °F 21.2 °F 64% 29.78 in 10.0 mi North 18.4 mph 21.9 mph N/A   Overcast
8:56 PM 30.2 °F 19.3 °F 23.0 °F 75% 29.79 in 10.0 mi North 15.0 mph 19.6 mph N/A   Overcast
9:16 PM 30.2 °F 20.2 °F 21.2 °F 69% 29.79 in 10.0 mi North 12.7 mph - N/A   Overcast
9:36 PM 30.2 °F 21.3 °F 21.2 °F 69% 29.80 in 10.0 mi North 10.4 mph - N/A   Overcast
9:56 PM 30.2 °F 19.8 °F 21.2 °F 69% 29.81 in 10.0 mi NNE 13.8 mph - N/A   Overcast
10:16 PM 32.0 °F 22.5 °F 21.2 °F 64% 29.81 in 10.0 mi North 12.7 mph - N/A   Overcast
10:36 PM 30.2 °F 20.8 °F 19.4 °F 64% 29.82 in 10.0 mi North 11.5 mph - 0.01 in   Overcast
10:56 PM 30.2 °F 21.3 °F 21.2 °F 69% 29.82 in 10.0 mi North 10.4 mph - 0.05 in   Overcast
11:16 PM 30.2 °F 21.9 °F 21.2 °F 69% 29.83 in 10.0 mi North 9.2 mph - 0.09 in   Overcast
11:36 PM 30.2 °F 20.2 °F 19.4 °F 64% 29.84 in 10.0 mi North 12.7 mph - 0.10 in   Overcast
11:56 PM 30.2 °F 20.2 °F 19.4 °F 64% 29.84 in 10.0 mi NNW 12.7 mph - 0.10 in   Overcast